Location: Unspecified
(0.0000°N, 0.0000°E)
Time: 21:58:10
(UTC+00:00)

Envisat - Pass Details

Date: 08 August 2022
Orbit: 763 x 765 km, 98.2° (Epoch: 15 August)

Event Time Altitude Azimuth Distance (km) Brightness Sun altitude
Rises 03:59:55 0° 13° (NNE) 3,212 6.6 -30.1°
Reaches altitude 10° 04:02:12 10° 13° (NNE) 2,289 5.8 -29.5°
Enters shadow 04:06:31 66° 20° (NNE) 831 3.2 -28.5°
